TimeAKDT,TemperatureF,Dew PointF,Humidity,Sea Level PressureIn,VisibilityMPH,Wind Direction,Wind SpeedMPH,Gust SpeedMPH,PrecipitationIn,Events,Conditions,WindDirDegrees,DateUTC
12:53 AM,59.0,53.1,81,30.04,10.0,WNW,4.6,-,N/A,,Scattered Clouds,300,2013-07-17 08:53:00
1:53 AM,57.9,53.1,84,30.03,10.0,NW,15.0,-,N/A,,Scattered Clouds,320,2013-07-17 09:53:00
2:53 AM,57.0,52.0,83,30.04,10.0,North,10.4,-,N/A,,Scattered Clouds,350,2013-07-17 10:53:00
3:09 AM,57.0,53.1,87,30.03,10.0,NNW,11.5,-,N/A,,Mostly Cloudy,330,2013-07-17 11:09:00
3:28 AM,57.0,52.0,83,30.03,10.0,North,6.9,-,N/A,,Scattered Clouds,360,2013-07-17 11:28:00
3:49 AM,57.2,53.6,88,30.03,10.0,NW,10.4,-,N/A,,Mostly Cloudy,320,2013-07-17 11:49:00
3:53 AM,57.0,53.1,87,30.03,10.0,NNE,6.9,-,N/A,,Mostly Cloudy,20,2013-07-17 11:53:00
4:53 AM,57.0,52.0,83,30.01,10.0,NNW,5.8,-,N/A,,Mostly Cloudy,340,2013-07-17 12:53:00
5:21 AM,57.0,52.0,83,30.01,10.0,NE,4.6,-,N/A,,Scattered Clouds,40,2013-07-17 13:21:00
5:33 AM,57.0,53.1,87,30.01,10.0,NNW,6.9,-,N/A,,Mostly Cloudy,340,2013-07-17 13:33:00
5:53 AM,57.0,53.1,87,30.01,10.0,NNW,8.1,-,N/A,,Mostly Cloudy,330,2013-07-17 13:53:00
6:00 AM,57.0,52.0,83,30.02,10.0,NNE,4.6,-,N/A,,Scattered Clouds,30,2013-07-17 14:00:00
6:21 AM,57.0,52.0,83,30.01,10.0,Calm,Calm,-,N/A,,Mostly Cloudy,0,2013-07-17 14:21:00
6:53 AM,57.0,53.1,87,30.02,10.0,NW,9.2,-,N/A,,Mostly Cloudy,310,2013-07-17 14:53:00
7:53 AM,57.9,52.0,81,30.02,10.0,Variable,3.5,-,N/A,,Scattered Clouds,0,2013-07-17 15:53:00
8:53 AM,59.0,52.0,78,30.02,10.0,NNW,8.1,-,N/A,,Mostly Cloudy,330,2013-07-17 16:53:00
9:53 AM,62.1,53.1,72,30.01,10.0,NNW,10.4,-,N/A,,Overcast,330,2013-07-17 17:53:00
10:53 AM,63.0,53.1,70,30.01,10.0,NW,10.4,-,N/A,,Overcast,320,2013-07-17 18:53:00
11:53 AM,64.0,55.0,73,30.01,10.0,NW,8.1,-,N/A,,Overcast,310,2013-07-17 19:53:00
12:53 PM,66.9,54.0,63,30.01,10.0,West,12.7,-,N/A,,Mostly Cloudy,280,2013-07-17 20:53:00
1:53 PM,66.0,54.0,65,30.01,10.0,West,10.4,-,N/A,,Mostly Cloudy,280,2013-07-17 21:53:00
2:53 PM,66.0,54.0,65,30.02,10.0,WNW,16.1,-,N/A,,Mostly Cloudy,290,2013-07-17 22:53:00
3:53 PM,66.0,55.0,68,30.03,10.0,WNW,15.0,-,N/A,,Scattered Clouds,290,2013-07-17 23:53:00
4:53 PM,66.0,54.0,65,30.02,10.0,WNW,11.5,-,N/A,,Scattered Clouds,290,2013-07-18 00:53:00
5:53 PM,64.0,54.0,70,30.02,10.0,WNW,16.1,-,N/A,,Clear,300,2013-07-18 01:53:00
6:53 PM,63.0,55.0,75,30.03,10.0,WNW,13.8,-,N/A,,Clear,290,2013-07-18 02:53:00
7:53 PM,62.1,54.0,75,30.03,10.0,WNW,12.7,-,N/A,,Clear,300,2013-07-18 03:53:00
8:53 PM,60.1,54.0,80,30.04,10.0,NW,12.7,-,N/A,,Clear,320,2013-07-18 04:53:00
9:53 PM,59.0,54.0,83,30.06,10.0,NW,13.8,-,N/A,,Clear,310,2013-07-18 05:53:00
10:25 PM,59.0,54.0,83,30.07,10.0,NNW,12.7,-,N/A,,Partly Cloudy,330,2013-07-18 06:25:00
10:53 PM,57.9,53.1,84,30.07,10.0,NW,9.2,-,N/A,,Partly Cloudy,320,2013-07-18 06:53:00
11:53 PM,57.9,53.1,84,30.08,10.0,NNW,10.4,-,N/A,,Partly Cloudy,330,2013-07-18 07:53:00